Location: Carabito
(9.8355°N, 67.9249°W)
Time: 23:59:43
(UTC+00:00)

ATLAS 5 CENTAUR R/B - Pass Details

Date: 23 May 2024
Orbit: 419 x 1168 km, 63.3° (Epoch: 12 June)

Event Time Altitude Azimuth Distance (km) Brightness Sun altitude
Rises 01:06:51 0° 323° (NW) 3,535 6.4 -31.8°
Reaches altitude 10° 01:09:20 10° 316° (NW) 2,696 5.6 -32.3°
Maximum altitude 01:15:27 44° 247° (WSW) 1,445 3.5 -33.6°
Enters shadow 01:16:20 42° 227° (SW) 1,500 3.4 -33.8°
